Location: Kott?ru
(16.6209°N, 80.6208°E)
Time: 14:39:31
(UTC+00:00)

Cosmos 1125 Rocket - Pass Details

Date: 18 September 2020
Orbit: 758 x 779 km, 74.0° (Epoch: 30 October)

Event Time Altitude Azimuth Distance (km) Brightness Sun altitude
Rises 13:47:18 0° 179° (S) 3,230 6.7 -17.7°
Reaches altitude 10° 13:49:46 10° 172° (S) 2,308 5.8 -18.3°
Maximum altitude 13:54:44 44° 101° (E) 1,055 3.7 -19.4°
Drops below altitude 10° 13:59:44 10° 30° (NNE) 2,323 5.8 -20.6°
Sets 14:02:12 0° 24° (NNE) 3,253 6.6 -21.2°
